Regional Weather Roundup
Issued by NWS

Home | Current Version | Previous Version | Text Only | Print | Product List | Glossary On
Versions: 1 2 3 4 5 6 7 8 9 10 11 12 13 14 15 16 17 18 19 20 21 22 23 24 25 26 27 28 29 30 31 32 33 34 35 36 37 38 39 40 41 42 43 44 45 46 47 48 49 50
000
ASUS44 KMEG 031200
RWRTN
TENNESSEE HOURLY STATE WEATHER ROUNDUP
NATIONAL WEATHER SERVICE MEMPHIS TN
600 AM CST TUE MAR 03 2015

TNZ002-004-019-021-049-052-054-088>092-031300-
WEST TENNESSEE

CITY           SKY/WX    TMP DP  RH WIND       PRES   REMARKS
MEMPHIS INTL   CLOUDY    46  44  93 SW3       30.09R FOG
NWS MEMPHIS      N/A     45 N/A N/A MISG        N/A
JACKSON        CLOUDY    47  45  93 S7        30.08F FOG
DYERSBURG      CLOUDY    41  28  60 SE3       30.08F VSB 3/4
UNION CITY     CLOUDY    37  36  93 CALM      30.06F
PARIS          CLOUDY    41  39  93 S7        30.08S
LEXINGTON      CLOUDY    43  43 100 S3        30.10S VSB 1
SAVANNAH       CLOUDY    46  46 100 S6        30.12R
$$

TNZ008-025-027-028-033-062-065-066-031300-
NORTH MIDDLE TENNESSEE

CITY           SKY/WX    TMP DP  RH WIND       PRES   REMARKS
NASHVILLE      CLOUDY    46  42  86 S6        30.12F
CLARKSVILLE    CLOUDY    43  34  70 S5        30.10S
COOKEVILLE       N/A     48  45  87 S6        30.13S
CROSSVILLE     CLOUDY    45  43  93 SW3       30.16S FOG
$$

TNZ061-075-076-078-094-096-097-031300-
SOUTH MIDDLE TENNESSEE

CITY           SKY/WX    TMP DP  RH WIND       PRES   REMARKS
FAYETTEVILLE   CLOUDY    46  45  93 S8          N/A
TULLAHOMA      CLOUDY    45  45 100 SE6       30.14F
WINCHESTER     CLOUDY    46  45  93 SE8       30.16F
COLUMBIA       CLOUDY   N/A N/A N/A S5        30.11R
SHELBYVILLE    CLOUDY    46  45  93 SE3       30.14F
$$

TNZ017-018-042-046-047-031300-
NORTHEAST TENNESSEE

CITY           SKY/WX    TMP DP  RH WIND       PRES   REMARKS
TRI CITIES     CLOUDY    39  30  70 CALM      30.20R
ELIZABETHTON   CLOUDY    45  36  70 NE3       30.20R
$$

TNZ012-013-036-069-073-074-031300-
CENTRAL EAST TENNESSEE

CITY           SKY/WX    TMP DP  RH WIND       PRES   REMARKS
KNOXVILLE      LGT RAIN  42  37  82 CALM      30.20F
OAK RIDGE      CLOUDY    40  38  93 CALM      30.22S FOG
GATLINBURG     CLOUDY    39  37  93 CALM      30.19F
$$

TNZ083-085-099-031300-
SOUTHEAST TENNESSEE

CITY           SKY/WX    TMP DP  RH WIND       PRES   REMARKS
CHATTANOOGA    LGT RAIN  43  42  97 CALM      30.21S FOG
$$

SKY/WX REPORTED AS FAIR MEANS FEW OR NO CLOUDS BELOW
12 THOUSAND FEET.



USA.gov is the U.S. government's official web portal to all federal, state and local government web resources and services.